Location: *
(43.9905°S, 176.4941°W)
Time: 07:58:00
(UTC+00:00)

Helios 1B rocket - Pass Details

Date: 08 December 2019
Orbit: 574 x 585 km, 98.1° (Epoch: 20 January)

Event Time Altitude Azimuth Distance (km) Brightness Sun altitude
Exits shadow 10:42:01 73° 344° (NNW) 617 2.3 -22.1°
Maximum altitude 10:42:22 81° 284° (WNW) 598 2.3 -22.1°
Drops below altitude 10° 10:46:33 10° 195° (SSW) 1,923 6.2 -22.3°
Sets 10:48:44 0° 194° (SSW) 2,832 7.5 -22.4°
